Year,Month,Day,Hour,Minute,Value (Times are PST for temperature in C)
2007,09,23,00,00,8.80
2007,09,23,00,01,8.80
2007,09,23,00,02,8.80
2007,09,23,00,03,8.80
2007,09,23,00,04,8.80
2007,09,23,00,05,8.80
2007,09,23,00,06,8.80
2007,09,23,00,07,8.80
2007,09,23,00,08,8.80
2007,09,23,00,09,8.80
2007,09,23,00,10,8.70
2007,09,23,00,11,8.70
2007,09,23,00,12,8.70
2007,09,23,00,13,8.70
2007,09,23,00,14,8.70
2007,09,23,00,15,8.70
2007,09,23,00,16,8.70
2007,09,23,00,17,8.70
2007,09,23,00,18,8.70
2007,09,23,00,19,8.70
2007,09,23,00,20,8.70
2007,09,23,00,21,8.70
2007,09,23,00,22,8.70
2007,09,23,00,23,8.70
2007,09,23,00,24,8.70
2007,09,23,00,25,8.70
2007,09,23,00,26,8.70
2007,09,23,00,27,8.60
2007,09,23,00,28,8.60
2007,09,23,00,29,8.60
2007,09,23,00,30,8.60
2007,09,23,00,31,8.60
2007,09,23,00,32,8.60
2007,09,23,00,33,8.60
2007,09,23,00,34,8.60
2007,09,23,00,35,8.60
2007,09,23,00,36,8.60
2007,09,23,00,37,8.60
2007,09,23,00,38,8.60
2007,09,23,00,39,8.70
2007,09,23,00,40,8.70
2007,09,23,00,41,8.70
2007,09,23,00,42,8.70
2007,09,23,00,43,8.70
2007,09,23,00,44,8.70
2007,09,23,00,45,8.70
2007,09,23,00,46,8.70
2007,09,23,00,47,8.70
2007,09,23,00,48,8.70
2007,09,23,00,49,8.70
2007,09,23,00,50,8.70
2007,09,23,00,51,8.70
2007,09,23,00,52,8.70
2007,09,23,00,53,8.80
2007,09,23,00,54,8.80
2007,09,23,00,55,8.80
2007,09,23,00,56,8.80
2007,09,23,00,57,8.80
2007,09,23,00,58,8.80
2007,09,23,00,59,8.80
2007,09,23,01,00,8.80
2007,09,23,01,01,8.80
2007,09,23,01,02,8.80
2007,09,23,01,03,8.80
2007,09,23,01,04,8.80
2007,09,23,01,05,8.80
2007,09,23,01,06,8.80
2007,09,23,01,07,8.90
2007,09,23,01,08,8.90
2007,09,23,01,09,8.90
2007,09,23,01,10,8.90
2007,09,23,01,11,9.00
2007,09,23,01,12,9.00
2007,09,23,01,13,9.10
2007,09,23,01,14,9.10
2007,09,23,01,15,9.10
2007,09,23,01,16,9.10
2007,09,23,01,17,9.20
2007,09,23,01,18,9.20
2007,09,23,01,19,9.20
2007,09,23,01,20,9.20
2007,09,23,01,21,9.20
2007,09,23,01,22,9.30
2007,09,23,01,23,9.30
2007,09,23,01,24,9.30
2007,09,23,01,25,9.30
2007,09,23,01,26,9.30
2007,09,23,01,27,9.30
2007,09,23,01,28,9.30
2007,09,23,01,29,9.30
2007,09,23,01,30,9.30
2007,09,23,01,31,9.30
2007,09,23,01,32,9.30
2007,09,23,01,33,9.30
2007,09,23,01,34,9.30
2007,09,23,01,35,9.30
2007,09,23,01,36,9.30
2007,09,23,01,37,9.30
2007,09,23,01,38,9.30
2007,09,23,01,39,9.30
2007,09,23,01,40,9.30
2007,09,23,01,41,9.30
2007,09,23,01,42,9.30
2007,09,23,01,43,9.30
2007,09,23,01,44,9.30
2007,09,23,01,45,9.30
2007,09,23,01,46,9.30
2007,09,23,01,47,9.30
2007,09,23,01,48,9.30
2007,09,23,01,49,9.30
2007,09,23,01,50,9.30
2007,09,23,01,51,9.20
2007,09,23,01,52,9.20
2007,09,23,01,53,9.20
2007,09,23,01,54,9.20
2007,09,23,01,55,9.20
2007,09,23,01,56,9.20
2007,09,23,01,57,9.20
2007,09,23,01,58,9.10
2007,09,23,01,59,9.10
2007,09,23,02,00,9.10
2007,09,23,02,01,9.10
2007,09,23,02,02,9.10
2007,09,23,02,03,9.10
2007,09,23,02,04,9.10
2007,09,23,02,05,9.00
2007,09,23,02,06,9.00
2007,09,23,02,07,9.00
2007,09,23,02,08,9.00
2007,09,23,02,09,9.00
2007,09,23,02,10,8.90
2007,09,23,02,11,8.90
2007,09,23,02,12,8.90
2007,09,23,02,13,8.90
2007,09,23,02,14,8.90
2007,09,23,02,15,8.90
2007,09,23,02,16,8.90
2007,09,23,02,17,8.80
2007,09,23,02,18,8.80
2007,09,23,02,19,8.80
2007,09,23,02,20,8.80
2007,09,23,02,21,8.80
2007,09,23,02,22,8.80
2007,09,23,02,23,8.80
2007,09,23,02,24,8.80
2007,09,23,02,25,8.80
2007,09,23,02,26,8.80
2007,09,23,02,27,8.80
2007,09,23,02,28,8.80
2007,09,23,02,29,8.80
2007,09,23,02,30,8.80
2007,09,23,02,31,8.80
2007,09,23,02,32,8.80
2007,09,23,02,33,8.80
2007,09,23,02,34,8.80
2007,09,23,02,35,8.80
2007,09,23,02,36,8.70
2007,09,23,02,37,8.70
2007,09,23,02,38,8.70
2007,09,23,02,39,8.70
2007,09,23,02,40,8.70
2007,09,23,02,41,8.70
2007,09,23,02,42,8.70
2007,09,23,02,43,8.60
2007,09,23,02,44,8.60
2007,09,23,02,45,8.60
2007,09,23,02,46,8.60
2007,09,23,02,47,8.50
2007,09,23,02,48,8.50
2007,09,23,02,49,8.50
2007,09,23,02,50,8.50
2007,09,23,02,51,8.40
2007,09,23,02,52,8.40
2007,09,23,02,53,8.40
2007,09,23,02,54,8.40
2007,09,23,02,55,8.40
2007,09,23,02,56,8.30
2007,09,23,02,57,8.30
2007,09,23,02,58,8.30
2007,09,23,02,59,8.30
2007,09,23,03,00,8.30
2007,09,23,03,01,8.30
2007,09,23,03,02,8.30
2007,09,23,03,03,8.30
2007,09,23,03,04,8.30
2007,09,23,03,05,8.30
2007,09,23,03,06,8.30
2007,09,23,03,07,8.30
2007,09,23,03,08,8.30
2007,09,23,03,09,8.30
2007,09,23,03,10,8.30
2007,09,23,03,11,8.20
2007,09,23,03,12,8.30
2007,09,23,03,13,8.30
2007,09,23,03,14,8.30
2007,09,23,03,15,8.30
2007,09,23,03,16,8.30
2007,09,23,03,17,8.30
2007,09,23,03,18,8.30
2007,09,23,03,19,8.30
2007,09,23,03,20,8.30
2007,09,23,03,21,8.30
2007,09,23,03,22,8.30
2007,09,23,03,23,8.30
2007,09,23,03,24,8.30
2007,09,23,03,25,8.30
2007,09,23,03,26,8.30
2007,09,23,03,27,8.30
2007,09,23,03,28,8.30
2007,09,23,03,29,8.30
2007,09,23,03,30,8.30
2007,09,23,03,31,8.30
2007,09,23,03,32,8.30
2007,09,23,03,33,8.20
2007,09,23,03,34,8.20
2007,09,23,03,35,8.20
2007,09,23,03,36,8.20
2007,09,23,03,37,8.20
2007,09,23,03,38,8.20
2007,09,23,03,39,8.20
2007,09,23,03,40,8.20
2007,09,23,03,41,8.20
2007,09,23,03,42,8.20
2007,09,23,03,43,8.20
2007,09,23,03,44,8.10
2007,09,23,03,45,8.10
2007,09,23,03,46,8.10
2007,09,23,03,47,8.10
2007,09,23,03,48,8.10
2007,09,23,03,49,8.10
2007,09,23,03,50,8.10
2007,09,23,03,51,8.00
2007,09,23,03,52,8.00
2007,09,23,03,53,8.00
2007,09,23,03,54,8.00
2007,09,23,03,55,8.00
2007,09,23,03,56,8.00
2007,09,23,03,57,8.00
2007,09,23,03,58,7.90
2007,09,23,03,59,7.90
2007,09,23,04,00,7.90
2007,09,23,04,01,7.90
2007,09,23,04,02,7.90
2007,09,23,04,03,7.90
2007,09,23,04,04,7.90
2007,09,23,04,05,7.90
2007,09,23,04,06,7.90
2007,09,23,04,07,7.90
2007,09,23,04,08,7.80
2007,09,23,04,09,7.80
2007,09,23,04,10,7.80
2007,09,23,04,11,7.80
2007,09,23,04,12,7.80
2007,09,23,04,13,7.80
2007,09,23,04,14,7.80
2007,09,23,04,15,7.70
2007,09,23,04,16,7.70
2007,09,23,04,17,7.70
2007,09,23,04,18,7.70
2007,09,23,04,19,7.70
2007,09,23,04,20,7.70
2007,09,23,04,21,7.70
2007,09,23,04,22,7.70
2007,09,23,04,23,7.70
2007,09,23,04,24,7.70
2007,09,23,04,25,7.70
2007,09,23,04,26,7.70
2007,09,23,04,27,7.70
2007,09,23,04,28,7.70
2007,09,23,04,29,7.70
2007,09,23,04,30,7.70
2007,09,23,04,31,7.70
2007,09,23,04,32,7.70
2007,09,23,04,33,7.70
2007,09,23,04,34,7.70
2007,09,23,04,35,7.60
2007,09,23,04,36,7.60
2007,09,23,04,37,7.60
2007,09,23,04,38,7.60
2007,09,23,04,39,7.50
2007,09,23,04,40,7.50
2007,09,23,04,41,7.40
2007,09,23,04,42,7.40
2007,09,23,04,43,7.40
2007,09,23,04,44,7.40
2007,09,23,04,45,7.40
2007,09,23,04,46,7.40
2007,09,23,04,47,7.30
2007,09,23,04,48,7.30
2007,09,23,04,49,7.30
2007,09,23,04,50,7.30
2007,09,23,04,51,7.30
2007,09,23,04,52,7.30
2007,09,23,04,53,7.20
2007,09,23,04,54,7.20
2007,09,23,04,55,7.20
2007,09,23,04,56,7.20
2007,09,23,04,57,7.20
2007,09,23,04,58,7.20
2007,09,23,04,59,7.20
2007,09,23,05,00,7.10
2007,09,23,05,01,7.10
2007,09,23,05,02,7.10
2007,09,23,05,03,7.10
2007,09,23,05,04,7.10
2007,09,23,05,05,7.10
2007,09,23,05,06,7.00
2007,09,23,05,07,7.00
2007,09,23,05,08,7.00
2007,09,23,05,09,7.00
2007,09,23,05,10,7.00
2007,09,23,05,11,6.90
2007,09,23,05,12,6.90
2007,09,23,05,13,6.90
2007,09,23,05,14,6.90
2007,09,23,05,15,6.90
2007,09,23,05,16,6.90
2007,09,23,05,17,6.90
2007,09,23,05,18,6.90
2007,09,23,05,19,6.90
2007,09,23,05,20,6.90
2007,09,23,05,21,6.80
2007,09,23,05,22,6.80
2007,09,23,05,23,6.80
2007,09,23,05,24,6.80
2007,09,23,05,25,6.80
2007,09,23,05,26,6.80
2007,09,23,05,27,6.80
2007,09,23,05,28,6.80
2007,09,23,05,29,6.80
2007,09,23,05,30,6.70
2007,09,23,05,31,6.70
2007,09,23,05,32,6.70
2007,09,23,05,33,6.70
2007,09,23,05,34,6.70
2007,09,23,05,35,6.70
2007,09,23,05,36,6.60
2007,09,23,05,37,6.60
2007,09,23,05,38,6.60
2007,09,23,05,39,6.60
2007,09,23,05,40,6.60
2007,09,23,05,41,6.60
2007,09,23,05,42,6.60
2007,09,23,05,43,6.50
2007,09,23,05,44,6.50
2007,09,23,05,45,6.50
2007,09,23,05,46,6.50
2007,09,23,05,47,6.40
2007,09,23,05,48,6.40
2007,09,23,05,49,6.40
2007,09,23,05,50,6.40
2007,09,23,05,51,6.40
2007,09,23,05,52,6.50
2007,09,23,05,53,6.50
2007,09,23,05,54,6.60
2007,09,23,05,55,6.60
2007,09,23,05,56,6.70
2007,09,23,05,57,6.70
2007,09,23,05,58,6.70
2007,09,23,05,59,6.70
2007,09,23,06,00,6.70
2007,09,23,06,01,6.80
2007,09,23,06,02,6.70
2007,09,23,06,03,6.70
2007,09,23,06,04,6.70
2007,09,23,06,05,6.70
2007,09,23,06,06,6.70
2007,09,23,06,07,6.70
2007,09,23,06,08,6.70
2007,09,23,06,09,6.70
2007,09,23,06,10,6.70
2007,09,23,06,11,6.70
2007,09,23,06,12,6.70
2007,09,23,06,13,6.70
2007,09,23,06,14,6.70
2007,09,23,06,15,6.70
2007,09,23,06,16,6.70
2007,09,23,06,17,6.60
2007,09,23,06,18,6.60
2007,09,23,06,19,6.60
2007,09,23,06,20,6.60
2007,09,23,06,21,6.50
2007,09,23,06,22,6.50
2007,09,23,06,23,6.50
2007,09,23,06,24,6.50
2007,09,23,06,25,6.40
2007,09,23,06,26,6.40
2007,09,23,06,27,6.40
2007,09,23,06,28,6.40
2007,09,23,06,29,6.30
2007,09,23,06,30,6.30
2007,09,23,06,31,6.30
2007,09,23,06,32,6.30
2007,09,23,06,33,6.30
2007,09,23,06,34,6.30
2007,09,23,06,35,6.30
2007,09,23,06,36,6.30
2007,09,23,06,37,6.30
2007,09,23,06,38,6.20
2007,09,23,06,39,6.30
2007,09,23,06,40,6.30
2007,09,23,06,41,6.30
2007,09,23,06,42,6.30
2007,09,23,06,43,6.20
2007,09,23,06,44,6.20
2007,09,23,06,45,6.20
2007,09,23,06,46,6.20
2007,09,23,06,47,6.20
2007,09,23,06,48,6.20
2007,09,23,06,49,6.20
2007,09,23,06,50,6.20
2007,09,23,06,51,6.20
2007,09,23,06,52,6.20
2007,09,23,06,53,6.20
2007,09,23,06,54,6.20
2007,09,23,06,55,6.10
2007,09,23,06,56,6.10
2007,09,23,06,57,6.10
2007,09,23,06,58,6.10
2007,09,23,06,59,6.10
2007,09,23,07,00,6.10
2007,09,23,07,01,6.10
2007,09,23,07,02,6.10
2007,09,23,07,03,6.10
2007,09,23,07,04,6.10
2007,09,23,07,05,6.10
2007,09,23,07,06,6.10
2007,09,23,07,07,6.10
2007,09,23,07,08,6.10
2007,09,23,07,09,6.10
2007,09,23,07,10,6.10
2007,09,23,07,11,6.10
2007,09,23,07,12,6.10
2007,09,23,07,13,6.10
2007,09,23,07,14,6.10
2007,09,23,07,15,6.00
2007,09,23,07,16,6.00
2007,09,23,07,17,6.00
2007,09,23,07,18,6.00
2007,09,23,07,19,6.00
2007,09,23,07,20,6.00
2007,09,23,07,21,6.00
2007,09,23,07,22,6.00
2007,09,23,07,23,6.00
2007,09,23,07,24,6.00
2007,09,23,07,25,5.90
2007,09,23,07,26,5.90
2007,09,23,07,27,5.90
2007,09,23,07,28,5.90
2007,09,23,07,29,5.90
2007,09,23,07,30,5.90
2007,09,23,07,31,5.90
2007,09,23,07,32,5.90
2007,09,23,07,33,5.90
2007,09,23,07,34,5.90
2007,09,23,07,35,5.90
2007,09,23,07,36,5.90
2007,09,23,07,37,5.90
2007,09,23,07,38,5.90
2007,09,23,07,39,5.90
2007,09,23,07,40,5.90
2007,09,23,07,41,5.90
2007,09,23,07,42,5.90
2007,09,23,07,43,5.90
2007,09,23,07,44,5.90
2007,09,23,07,45,5.90
2007,09,23,07,46,5.90
2007,09,23,07,47,6.00
2007,09,23,07,48,6.00
2007,09,23,07,49,6.00
2007,09,23,07,50,6.00
2007,09,23,07,51,6.10
2007,09,23,07,52,6.10
2007,09,23,07,53,6.20
2007,09,23,07,54,6.20
2007,09,23,07,55,6.30
2007,09,23,07,56,6.30
2007,09,23,07,57,6.30
2007,09,23,07,58,6.30
2007,09,23,07,59,6.30
2007,09,23,08,00,6.30
2007,09,23,08,01,6.30
2007,09,23,08,02,6.30
2007,09,23,08,03,6.30
2007,09,23,08,04,6.30
2007,09,23,08,05,6.30
2007,09,23,08,06,6.30
2007,09,23,08,07,6.30
2007,09,23,08,08,6.30
2007,09,23,08,09,6.30
2007,09,23,08,10,6.30
2007,09,23,08,11,6.30
2007,09,23,08,12,6.30
2007,09,23,08,13,6.30
2007,09,23,08,14,6.30
2007,09,23,08,15,6.40
2007,09,23,08,16,6.40
2007,09,23,08,17,6.50
2007,09,23,08,18,6.50
2007,09,23,08,19,6.60
2007,09,23,08,20,6.70
2007,09,23,08,21,6.80
2007,09,23,08,22,6.90
2007,09,23,08,23,7.00
2007,09,23,08,24,7.10
2007,09,23,08,25,7.20
2007,09,23,08,26,7.20
2007,09,23,08,27,7.30
2007,09,23,08,28,7.40
2007,09,23,08,29,7.50
2007,09,23,08,30,7.60
2007,09,23,08,31,7.60
2007,09,23,08,32,7.70
2007,09,23,08,33,7.70
2007,09,23,08,34,7.80
2007,09,23,08,35,7.80
2007,09,23,08,36,7.90
2007,09,23,08,37,8.00
2007,09,23,08,38,8.10
2007,09,23,08,39,8.10
2007,09,23,08,40,8.20
2007,09,23,08,41,8.30
2007,09,23,08,42,8.30
2007,09,23,08,43,8.40
2007,09,23,08,44,8.50
2007,09,23,08,45,8.60
2007,09,23,08,46,8.60
2007,09,23,08,47,8.70
2007,09,23,08,48,8.80
2007,09,23,08,49,8.80
2007,09,23,08,50,8.90
2007,09,23,08,51,9.00
2007,09,23,08,52,9.10
2007,09,23,08,53,9.10
2007,09,23,08,54,9.20
2007,09,23,08,55,9.30
2007,09,23,08,56,9.40
2007,09,23,08,57,9.50
2007,09,23,08,58,9.50
2007,09,23,08,59,9.60
2007,09,23,09,00,9.70
2007,09,23,09,01,9.80
2007,09,23,09,02,9.90
2007,09,23,09,03,10.00
2007,09,23,09,04,10.10
2007,09,23,09,05,10.10
2007,09,23,09,06,10.20
2007,09,23,09,07,10.20
2007,09,23,09,08,10.30
2007,09,23,09,09,10.30
2007,09,23,09,10,10.30
2007,09,23,09,11,10.40
2007,09,23,09,12,10.50
2007,09,23,09,13,10.50
2007,09,23,09,14,10.60
2007,09,23,09,15,10.70
2007,09,23,09,16,10.80
2007,09,23,09,17,11.00
2007,09,23,09,18,11.20
2007,09,23,09,19,11.30
2007,09,23,09,20,11.50
2007,09,23,09,21,11.60
2007,09,23,09,22,11.70
2007,09,23,09,23,11.80
2007,09,23,09,24,11.80
2007,09,23,09,25,11.90
2007,09,23,09,26,11.90
2007,09,23,09,27,12.00
2007,09,23,09,28,12.00
2007,09,23,09,29,12.00
2007,09,23,09,30,12.00
2007,09,23,09,31,12.10
2007,09,23,09,32,12.10
2007,09,23,09,33,12.20
2007,09,23,09,34,12.20
2007,09,23,09,35,12.30
2007,09,23,09,36,12.40
2007,09,23,09,37,12.50
2007,09,23,09,38,12.60
2007,09,23,09,39,12.60
2007,09,23,09,40,12.60
2007,09,23,09,41,12.60
2007,09,23,09,42,12.70
2007,09,23,09,43,12.70
2007,09,23,09,44,12.70
2007,09,23,09,45,12.80
2007,09,23,09,46,12.80
2007,09,23,09,47,12.80
2007,09,23,09,48,12.80
2007,09,23,09,49,12.80
2007,09,23,09,50,12.80
2007,09,23,09,51,12.90
2007,09,23,09,52,12.90
2007,09,23,09,53,13.00
2007,09,23,09,54,13.10
2007,09,23,09,55,13.10
2007,09,23,09,56,13.10
2007,09,23,09,57,13.10
2007,09,23,09,58,13.10
2007,09,23,09,59,13.20
2007,09,23,10,00,13.20
2007,09,23,10,01,13.20
2007,09,23,10,02,13.20
2007,09,23,10,03,13.10
2007,09,23,10,04,13.10
2007,09,23,10,05,13.10
2007,09,23,10,06,13.10
2007,09,23,10,07,13.20
2007,09,23,10,08,13.20
2007,09,23,10,09,13.20
2007,09,23,10,10,13.10
2007,09,23,10,11,13.10
2007,09,23,10,12,13.10
2007,09,23,10,13,13.20
2007,09,23,10,14,13.20
2007,09,23,10,15,13.20
2007,09,23,10,16,13.20
2007,09,23,10,17,13.20
2007,09,23,10,18,13.20
2007,09,23,10,19,13.20
2007,09,23,10,20,13.20
2007,09,23,10,21,13.30
2007,09,23,10,22,13.20
2007,09,23,10,23,13.20
2007,09,23,10,24,13.20
2007,09,23,10,25,13.10
2007,09,23,10,26,13.10
2007,09,23,10,27,13.20
2007,09,23,10,28,13.30
2007,09,23,10,29,13.30
2007,09,23,10,30,13.30
2007,09,23,10,31,13.40
2007,09,23,10,32,13.40
2007,09,23,10,33,13.50
2007,09,23,10,34,13.50
2007,09,23,10,35,13.50
2007,09,23,10,36,13.60
2007,09,23,10,37,13.60
2007,09,23,10,38,13.70
2007,09,23,10,39,13.70
2007,09,23,10,40,13.70
2007,09,23,10,41,13.70
2007,09,23,10,42,13.70
2007,09,23,10,43,13.70
2007,09,23,10,44,13.70
2007,09,23,10,45,13.70
2007,09,23,10,46,13.70
2007,09,23,10,47,13.70
2007,09,23,10,48,13.80
2007,09,23,10,49,13.80
2007,09,23,10,50,13.80
2007,09,23,10,51,13.80
2007,09,23,10,52,13.80
2007,09,23,10,53,13.90
2007,09,23,10,54,14.00
2007,09,23,10,55,14.00
2007,09,23,10,56,14.00
2007,09,23,10,57,14.10
2007,09,23,10,58,14.10
2007,09,23,10,59,14.10
2007,09,23,11,00,14.10
2007,09,23,11,01,14.10
2007,09,23,11,02,14.10
2007,09,23,11,03,14.10
2007,09,23,11,04,14.10
2007,09,23,11,05,14.10
2007,09,23,11,06,14.10
2007,09,23,11,07,14.00
2007,09,23,11,08,13.90
2007,09,23,11,09,13.80
2007,09,23,11,10,13.80
2007,09,23,11,11,13.90
2007,09,23,11,12,13.90
2007,09,23,11,13,14.00
2007,09,23,11,14,14.10
2007,09,23,11,15,14.20
2007,09,23,11,16,14.30
2007,09,23,11,17,14.30
2007,09,23,11,18,14.40
2007,09,23,11,19,14.40
2007,09,23,11,20,14.40
2007,09,23,11,21,14.30
2007,09,23,11,22,14.30
2007,09,23,11,23,14.30
2007,09,23,11,24,14.30
2007,09,23,11,25,14.30
2007,09,23,11,26,14.40
2007,09,23,11,27,14.40
2007,09,23,11,28,14.40
2007,09,23,11,29,14.40
2007,09,23,11,30,14.30
2007,09,23,11,31,14.40
2007,09,23,11,32,14.40
2007,09,23,11,33,14.40
2007,09,23,11,34,14.40
2007,09,23,11,35,14.40
2007,09,23,11,36,14.30
2007,09,23,11,37,14.10
2007,09,23,11,38,14.10
2007,09,23,11,39,14.10
2007,09,23,11,40,14.10
2007,09,23,11,41,14.20
2007,09,23,11,42,14.30
2007,09,23,11,43,14.40
2007,09,23,11,44,14.40
2007,09,23,11,45,14.40
2007,09,23,11,46,14.40
2007,09,23,11,47,14.30
2007,09,23,11,48,14.30
2007,09,23,11,49,14.30
2007,09,23,11,50,14.30
2007,09,23,11,51,14.40
2007,09,23,11,52,14.40
2007,09,23,11,53,14.40
2007,09,23,11,54,14.40
2007,09,23,11,55,14.40
2007,09,23,11,56,14.40
2007,09,23,11,57,14.40
2007,09,23,11,58,14.30
2007,09,23,11,59,14.30
2007,09,23,12,00,14.20
2007,09,23,12,01,14.10
2007,09,23,12,02,14.10
2007,09,23,12,03,14.00
2007,09,23,12,04,14.00
2007,09,23,12,05,13.90
2007,09,23,12,06,13.90
2007,09,23,12,07,13.80
2007,09,23,12,08,13.80
2007,09,23,12,09,13.80
2007,09,23,12,10,13.60
2007,09,23,12,11,13.40
2007,09,23,12,12,13.40
2007,09,23,12,13,13.40
2007,09,23,12,14,13.40
2007,09,23,12,15,13.30
2007,09,23,12,16,13.30
2007,09,23,12,17,13.30
2007,09,23,12,18,13.30
2007,09,23,12,19,13.20
2007,09,23,12,20,13.30
2007,09,23,12,21,13.20
2007,09,23,12,22,13.20
2007,09,23,12,23,13.10
2007,09,23,12,24,13.20
2007,09,23,12,25,13.20
2007,09,23,12,26,13.30
2007,09,23,12,27,13.30
2007,09,23,12,28,13.40
2007,09,23,12,29,13.50
2007,09,23,12,30,13.50
2007,09,23,12,31,13.60
2007,09,23,12,32,13.60
2007,09,23,12,33,13.60
2007,09,23,12,34,13.60
2007,09,23,12,35,13.60
2007,09,23,12,36,13.60
2007,09,23,12,37,13.60
2007,09,23,12,38,13.50
2007,09,23,12,39,13.40
2007,09,23,12,40,13.40
2007,09,23,12,41,13.40
2007,09,23,12,42,13.40
2007,09,23,12,43,13.40
2007,09,23,12,44,13.30
2007,09,23,12,45,13.30
2007,09,23,12,46,13.30
2007,09,23,12,47,13.30
2007,09,23,12,48,13.30
2007,09,23,12,49,13.40
2007,09,23,12,50,13.50
2007,09,23,12,51,13.50
2007,09,23,12,52,13.60
2007,09,23,12,53,13.70
2007,09,23,12,54,13.70
2007,09,23,12,55,13.70
2007,09,23,12,56,13.80
2007,09,23,12,57,13.80
2007,09,23,12,58,13.70
2007,09,23,12,59,13.60
2007,09,23,13,00,13.60
2007,09,23,13,01,13.40
2007,09,23,13,02,13.30
2007,09,23,13,03,13.20
2007,09,23,13,04,13.20
2007,09,23,13,05,13.20
2007,09,23,13,06,13.20
2007,09,23,13,07,13.20
2007,09,23,13,08,13.20
2007,09,23,13,09,13.30
2007,09,23,13,10,13.30
2007,09,23,13,11,13.30
2007,09,23,13,12,13.30
2007,09,23,13,13,13.30
2007,09,23,13,14,13.40
2007,09,23,13,15,13.50
2007,09,23,13,16,13.60
2007,09,23,13,17,13.70
2007,09,23,13,18,13.70
2007,09,23,13,19,13.60
2007,09,23,13,20,13.60
2007,09,23,13,21,13.70
2007,09,23,13,22,13.70
2007,09,23,13,23,13.70
2007,09,23,13,24,13.70
2007,09,23,13,25,13.70
2007,09,23,13,26,13.80
2007,09,23,13,27,13.80
2007,09,23,13,28,13.80
2007,09,23,13,29,13.70
2007,09,23,13,30,13.70
2007,09,23,13,31,13.70
2007,09,23,13,32,13.70
2007,09,23,13,33,13.60
2007,09,23,13,34,13.60
2007,09,23,13,35,13.50
2007,09,23,13,36,13.50
2007,09,23,13,37,13.60
2007,09,23,13,38,13.60
2007,09,23,13,39,13.60
2007,09,23,13,40,13.60
2007,09,23,13,41,13.70
2007,09,23,13,42,13.70
2007,09,23,13,43,13.70
2007,09,23,13,44,13.70
2007,09,23,13,45,13.70
2007,09,23,13,46,13.80
2007,09,23,13,47,13.80
2007,09,23,13,48,13.80
2007,09,23,13,49,13.90
2007,09,23,13,50,14.00
2007,09,23,13,51,14.10
2007,09,23,13,52,14.10
2007,09,23,13,53,14.10
2007,09,23,13,54,14.10
2007,09,23,13,55,14.10
2007,09,23,13,56,14.10
2007,09,23,13,57,14.00
2007,09,23,13,58,14.00
2007,09,23,13,59,14.10
2007,09,23,14,00,14.10
2007,09,23,14,01,14.10
2007,09,23,14,02,14.10
2007,09,23,14,03,14.10
2007,09,23,14,04,14.20
2007,09,23,14,05,14.20
2007,09,23,14,06,14.30
2007,09,23,14,07,14.30
2007,09,23,14,08,14.30
2007,09,23,14,09,14.30
2007,09,23,14,10,14.30
2007,09,23,14,11,14.30
2007,09,23,14,12,14.30
2007,09,23,14,13,14.30
2007,09,23,14,14,14.30
2007,09,23,14,15,14.20
2007,09,23,14,16,14.20
2007,09,23,14,17,14.20
2007,09,23,14,18,14.20
2007,09,23,14,19,14.20
2007,09,23,14,20,14.20
2007,09,23,14,21,14.30
2007,09,23,14,22,14.30
2007,09,23,14,23,14.30
2007,09,23,14,24,14.30
2007,09,23,14,25,14.30
2007,09,23,14,26,14.30
2007,09,23,14,27,14.10
2007,09,23,14,28,13.90
2007,09,23,14,29,13.80
2007,09,23,14,30,13.80
2007,09,23,14,31,13.80
2007,09,23,14,32,13.80
2007,09,23,14,33,13.80
2007,09,23,14,34,13.90
2007,09,23,14,35,13.90
2007,09,23,14,36,13.90
2007,09,23,14,37,13.90
2007,09,23,14,38,14.00
2007,09,23,14,39,13.90
2007,09,23,14,40,13.90
2007,09,23,14,41,13.80
2007,09,23,14,42,13.80
2007,09,23,14,43,13.80
2007,09,23,14,44,13.80
2007,09,23,14,45,13.70
2007,09,23,14,46,13.80
2007,09,23,14,47,13.80
2007,09,23,14,48,13.70
2007,09,23,14,49,13.70
2007,09,23,14,50,13.80
2007,09,23,14,51,13.80
2007,09,23,14,52,13.90
2007,09,23,14,53,13.90
2007,09,23,14,54,13.90
2007,09,23,14,55,13.90
2007,09,23,14,56,14.00
2007,09,23,14,57,14.00
2007,09,23,14,58,13.90
2007,09,23,14,59,13.80
2007,09,23,15,00,13.80
2007,09,23,15,01,13.80
2007,09,23,15,02,13.80
2007,09,23,15,03,13.80
2007,09,23,15,04,13.80
2007,09,23,15,05,13.90
2007,09,23,15,06,13.90
2007,09,23,15,07,13.90
2007,09,23,15,08,13.90
2007,09,23,15,09,14.00
2007,09,23,15,10,14.00
2007,09,23,15,11,14.00
2007,09,23,15,12,13.90
2007,09,23,15,13,13.90
2007,09,23,15,14,13.80
2007,09,23,15,15,13.80
2007,09,23,15,16,13.70
2007,09,23,15,17,13.70
2007,09,23,15,18,13.70
2007,09,23,15,19,13.70
2007,09,23,15,20,13.70
2007,09,23,15,21,13.80
2007,09,23,15,22,13.80
2007,09,23,15,23,13.80
2007,09,23,15,24,13.90
2007,09,23,15,25,13.90
2007,09,23,15,26,14.00
2007,09,23,15,27,14.10
2007,09,23,15,28,14.10
2007,09,23,15,29,14.20
2007,09,23,15,30,14.20
2007,09,23,15,31,14.20
2007,09,23,15,32,14.20
2007,09,23,15,33,14.20
2007,09,23,15,34,14.20
2007,09,23,15,35,14.00
2007,09,23,15,36,14.00
2007,09,23,15,37,14.00
2007,09,23,15,38,14.10
2007,09,23,15,39,14.20
2007,09,23,15,40,14.20
2007,09,23,15,41,14.30
2007,09,23,15,42,14.30
2007,09,23,15,43,14.30
2007,09,23,15,44,14.20
2007,09,23,15,45,14.20
2007,09,23,15,46,14.20
2007,09,23,15,47,14.30
2007,09,23,15,48,14.20
2007,09,23,15,49,14.20
2007,09,23,15,50,14.20
2007,09,23,15,51,14.20
2007,09,23,15,52,14.20
2007,09,23,15,53,14.20
2007,09,23,15,54,14.30
2007,09,23,15,55,14.30
2007,09,23,15,56,14.20
2007,09,23,15,57,14.20
2007,09,23,15,58,14.10
2007,09,23,15,59,14.10
2007,09,23,16,00,14.10
2007,09,23,16,01,14.10
2007,09,23,16,02,14.00
2007,09,23,16,03,13.90
2007,09,23,16,04,14.00
2007,09,23,16,05,14.00
2007,09,23,16,06,14.00
2007,09,23,16,07,14.10
2007,09,23,16,08,14.20
2007,09,23,16,09,14.20
2007,09,23,16,10,14.20
2007,09,23,16,11,14.20
2007,09,23,16,12,14.20
2007,09,23,16,13,14.20
2007,09,23,16,14,14.10
2007,09,23,16,15,14.00
2007,09,23,16,16,13.90
2007,09,23,16,17,13.90
2007,09,23,16,18,13.90
2007,09,23,16,19,13.90
2007,09,23,16,20,14.00
2007,09,23,16,21,14.10
2007,09,23,16,22,14.10
2007,09,23,16,23,14.00
2007,09,23,16,24,14.00
2007,09,23,16,25,13.90
2007,09,23,16,26,13.80
2007,09,23,16,27,13.80
2007,09,23,16,28,13.70
2007,09,23,16,29,13.70
2007,09,23,16,30,13.70
2007,09,23,16,31,13.60
2007,09,23,16,32,13.50
2007,09,23,16,33,13.50
2007,09,23,16,34,13.50
2007,09,23,16,35,13.50
2007,09,23,16,36,13.50
2007,09,23,16,37,13.60
2007,09,23,16,38,13.60
2007,09,23,16,39,13.70
2007,09,23,16,40,13.70
2007,09,23,16,41,13.80
2007,09,23,16,42,13.80
2007,09,23,16,43,13.80
2007,09,23,16,44,13.70
2007,09,23,16,45,13.70
2007,09,23,16,46,13.70
2007,09,23,16,47,13.70
2007,09,23,16,48,13.60
2007,09,23,16,49,13.60
2007,09,23,16,50,13.70
2007,09,23,16,51,13.70
2007,09,23,16,52,13.70
2007,09,23,16,53,13.70
2007,09,23,16,54,13.70
2007,09,23,16,55,13.70
2007,09,23,16,56,13.70
2007,09,23,16,57,13.70
2007,09,23,16,58,13.70
2007,09,23,16,59,13.60
2007,09,23,17,00,13.60
2007,09,23,17,01,13.60
2007,09,23,17,02,13.60
2007,09,23,17,03,13.60
2007,09,23,17,04,13.60
2007,09,23,17,05,13.60
2007,09,23,17,06,13.60
2007,09,23,17,07,13.60
2007,09,23,17,08,13.60
2007,09,23,17,09,13.60
2007,09,23,17,10,13.60
2007,09,23,17,11,13.60
2007,09,23,17,12,13.60
2007,09,23,17,13,13.60
2007,09,23,17,14,13.60
2007,09,23,17,15,13.60
2007,09,23,17,16,13.60
2007,09,23,17,17,13.60
2007,09,23,17,18,13.60
2007,09,23,17,19,13.60
2007,09,23,17,20,13.60
2007,09,23,17,21,13.70
2007,09,23,17,22,13.70
2007,09,23,17,23,13.70
2007,09,23,17,24,13.70
2007,09,23,17,25,13.70
2007,09,23,17,26,13.70
2007,09,23,17,27,13.70
2007,09,23,17,28,13.70
2007,09,23,17,29,13.80
2007,09,23,17,30,13.80
2007,09,23,17,31,13.80
2007,09,23,17,32,13.80
2007,09,23,17,33,13.80
2007,09,23,17,34,13.90
2007,09,23,17,35,13.80
2007,09,23,17,36,13.80
2007,09,23,17,37,13.80
2007,09,23,17,38,13.70
2007,09,23,17,39,13.70
2007,09,23,17,40,13.70
2007,09,23,17,41,13.70
2007,09,23,17,42,13.60
2007,09,23,17,43,13.60